Regional Weather Roundup
Issued by NWS

Home | Current Version | Previous Version | Graphics & Text | Print | Product List | Glossary On
Versions: 1 2 3 4 5 6 7 8 9 10 11 12 13 14 15 16 17 18 19 20 21 22 23 24 25 26 27 28 29 30 31 32 33 34 35 36 37 38 39 40 41 42 43 44 45 46 47 48 49 50
987
ASUS43 KBIS 250702
RWRND

NORTH DAKOTA REGIONAL WEATHER ROUNDUP
NATIONAL WEATHER SERVICE BISMARCK ND
200 AM CDT SUN SEP 25 2016

NOTE: "FAIR" INDICATES FEW OR NO CLOUDS BELOW 12,000 FEET WITH NO
SIGNIFICANT WEATHER AND/OR OBSTRUCTIONS TO VISIBILITY.


NDZ001>003-009>011-017-250800-
NORTHWEST NORTH DAKOTA

CITY           SKY/WX    TMP DP  RH WIND       PRES   REMARKS
WILLISTON      RAIN      51  47  86 NW23G30   29.97R
MINOT          CLOUDY    56  51  84 NW18G31   29.76R
MINOT AFB      CLOUDY    55  51  86 NW17      29.75S
$$

NDZ018>021-031>035-040>046-250800-
SOUTHWEST NORTH DAKOTA

CITY           SKY/WX    TMP DP  RH WIND       PRES   REMARKS
BISMARCK       CLOUDY    52  47  83 W5        29.76F
DICKINSON      LGT RAIN  48  46  93 NW24G37   29.91R
GARRISON         N/A     55  53  93 NW17G24   29.77R
HETTINGER ARPT CLOUDY    49  46  90 NW32G44   29.95R
$$

NDZ004>008-012>016-024-026-027-054-250800-
NORTHEAST NORTH DAKOTA

CITY           SKY/WX    TMP DP  RH WIND       PRES   REMARKS
GRAND FORKS    CLEAR     66  64  93 S12       29.73S
GRND FRKS AFB  PTCLDY    65  64  98 S9        29.72F
DEVILS LAKE    CLEAR     58  51  78 CALM      29.71S
$$

NDZ022-023-025-028>030-036>039-047>053-250800-
SOUTHEAST NORTH DAKOTA

CITY           SKY/WX    TMP DP  RH WIND       PRES   REMARKS
FARGO          MOCLDY    67  64  90 S13       29.78S
JAMESTOWN      CLEAR     54  48  80 SW7       29.75F
$$





USA.gov is the U.S. government's official web portal to all federal, state and local government web resources and services.